Probability
87 84 87 87 87 87 87 87 84 81 81 74 71 68 68 71 61 58 48 52 48 48 45 39 42 35 35 32 26 23 19 19 19 19 23 19 13 10 6 10 13 6 6
87 87 87 87 84 84 84 84 84 81 74 74 68 68 65 61 58 55 52 52 42 42 48 45 39 32 29 32 23 19 19 19 16 16 16 13 10 13 3 13 3 3 10
90 87 87 87 81 81 81 84 81 77 74 74 71 65 61 58 61 52 52 45 45 48 45 42 35 32 29 23 26 13 16 10 13 13 16 16 6 3 6 3 3 6 0
84 87 87 87 84 81 81 81 77 74 77 68 65 61 61 55 61 48 39 39 42 42 35 35 29 29 26 23 23 19 13 13 10 10 13 10 10 6 6 0 0 3 0
81 81 87 81 77 84 84 84 81 77 74 68 61 55 52 45 39 35 35 35 39 35 35 35 32 23 19 10 10 13 10 10 10 10 10 6 3 3 0 0 0 0 0
81 81 81 74 74 77 81 81 77 74 68 68 58 55 48 35 16 16 26 32 35 39 42 39 26 19 6 3 3 3 3 3 3 3 3 6 6 3 0 0 0 0 0
74 77 74 71 71 74 77 71 74 71 68 65 61 58 52 35 16 13 13 23 29 39 39 39 26 16 6 13 3 0 0 0 3 3 3 0 0 3 3 0 0 0 0
68 68 68 71 68 68 68 68 71 71 71 65 61 58 55 26 13 10 3 16 26 32 32 29 32 26 16 13 10 6 6 3 0 0 3 3 0 3 3 3 3 0 3
68 68 68 65 65 61 61 61 65 65 68 68 61 58 45 29 13 10 3 19 26 29 29 26 23 23 16 6 6 6 6 3 0 0 0 0 0 0 0 0 0 0 0
65 65 65 61 61 61 58 58 61 58 61 68 58 52 39 35 19 10 3 10 26 26 23 23 16 13 13 6 6 6 6 3 3 0 0 0 0 0 0 0 0 0 0
65 61 58 58 58 55 58 58 58 55 52 48 55 55 42 32 19 6 0 10 19 19 19 19 16 10 3 0 0 6 6 3 3 6 6 0 0 0 0 0 0 0 0
58 61 58 58 45 45 52 61 61 52 45 45 42 48 32 29 10 3 0 0 6 6 13 13 13 10 0 0 0 3 3 0 3 6 3 3 3 0 0 0 0 0 0
55 55 55 52 55 52 48 45 48 52 45 39 39 42 29 29 23 3 0 0 0 3 6 6 6 3 0 0 0 0 0 0 3 3 3 3 3 3 3 0 0 0 0
55 58 45 55 42 39 35 32 32 35 35 35 35 29 26 26 16 10 6 3 0 0 3 3 0 0 0 3 3 0 0 3 3 3 3 3 6 6 3 3 0 0 0
58 52 42 39 32 39 29 35 29 23 23 29 23 26 29 19 10 10 3 3 3 3 3 6 3 6 6 3 3 3 0 0 0 0 0 3 0 0 0 0 0 0 0
45 42 39 32 29 26 26 19 6 6 6 6 10 6 3 6 6 0 0 3 3 3 3 3 3 3 3 3 3 3 3 0 0 0 0 0 0 0 0 0 3 3 3
45 35 32 26 19 19 19 19 13 6 0 0 0 0 0 3 0 0 0 0 0 0 3 3 3 3 3 3 3 3 3 6 3 0 0 0 0 0 0 0 0 0 0
35 32 29 29 23 16 16 19 16 10 10 6 0 0 0 0 0 0 0 0 3 3 3 3 3 3 6 6 6 3 3 6 6 10 6 3 3 0 0 0 0 0 0
26 26 26 23 23 16 16 13 13 13 10 6 10 0 0 0 0 0 0 3 3 3 3 6 6 6 6 6 6 6 6 6 6 3 3 3 3 3 3 0 0 0 0
35 16 13 16 19 16 16 13 13 13 13 10 10 6 0 0 0 0 3 3 3 3 0 3 3 3 3 3 3 3 3 3 3 3 0 0 0 0 0 0 0 0 0
16 10 6 13 13 13 13 13 13 10 10 10 13 6 0 3 3 0 0 3 0 3 3 3 3 3 3 3 3 3 3 3 3 6 0 0 0 0 0 0 0 0 0
10 6 6 6 13 13 10 10 13 13 13 16 13 3 0 3 3 0 0 0 0 3 0 0 3 3 3 3 3 3 0 0 3 6 3 0 0 0 0 0 0 0 0
6 6 6 3 10 3 6 6 6 6 6 6 6 6 0 0 3 0 0 0 0 0 0 0 3 3 3 3 3 3 3 3 3 3 0 0 0 3 0 0 0 0 0
0 0 0 0 0 0 3 3 3 3 0 0 0 3 3 6 6 6 3 3 3 3 3 6 6 6 6 6 6 3 3 3 3 3 6 0 0 0 0 0 0 0 0
0 0 0 0 0 0 3 3 0 0 0 3 0 0 0 3 3 3 3 3 3 0 0 3 6 6 6 6 6 6 0 0 0 0 0 0 0 0 0 0 0 0 0
3 0 0 0 3 0 0 0 0 0 0 0 0 0 0 3 3 3 6 6 3 3 3 3 3 3 3 3 3 3 0 0 0 0 0 0 0 0 0 0 0 0 0
Height
5896 5895 5893 5892 5890 5889 5888 5886 5885 5884 5882 5881 5880 5879 5878 5877 5876 5875 5874 5873 5872 5871 5870 5869 5868 5866 5865 5864 5862 5861 5860 5859 5858 5857 5855 5854 5853 5851 5850 5849 5848 5847 5846
5893 5892 5890 5889 5887 5886 5885 5884 5883 5882 5880 5879 5878 5877 5876 5874 5873 5872 5871 5870 5869 5868 5866 5865 5863 5862 5861 5860 5858 5857 5855 5854 5853 5852 5850 5848 5847 5846 5845 5843 5842 5841 5839
5890 5888 5887 5885 5884 5884 5882 5881 5880 5879 5878 5876 5875 5874 5873 5871 5870 5869 5868 5867 5865 5864 5863 5861 5859 5858 5857 5855 5854 5852 5850 5849 5847 5846 5844 5842 5841 5840 5838 5837 5835 5834 5832
5886 5885 5883 5882 5881 5880 5879 5878 5877 5876 5874 5873 5872 5871 5870 5868 5867 5866 5864 5863 5861 5860 5858 5857 5855 5853 5852 5850 5849 5847 5845 5843 5841 5839 5838 5836 5834 5832 5831 5830 5828 5826 5825
5881 5880 5879 5878 5877 5876 5875 5874 5873 5872 5870 5869 5868 5867 5866 5865 5863 5862 5860 5859 5857 5856 5854 5852 5850 5848 5847 5845 5843 5841 5839 5837 5834 5833 5831 5829 5827 5825 5824 5823 5821 5819 5817
5876 5875 5874 5873 5872 5871 5870 5869 5868 5867 5866 5865 5864 5862 5861 5860 5859 5857 5856 5854 5852 5851 5849 5847 5845 5843 5841 5839 5837 5835 5833 5830 5828 5825 5823 5821 5820 5818 5817 5815 5813 5812 5810
5870 5870 5868 5867 5866 5866 5865 5864 5862 5861 5861 5860 5858 5857 5856 5855 5853 5852 5850 5849 5847 5845 5843 5841 5839 5837 5835 5832 5830 5827 5825 5823 5821 5819 5816 5814 5813 5811 5809 5808 5806 5804 5802
5864 5863 5863 5861 5860 5859 5858 5857 5856 5856 5855 5853 5852 5851 5850 5849 5847 5846 5844 5843 5841 5839 5837 5835 5833 5830 5828 5826 5823 5821 5818 5816 5813 5811 5809 5807 5805 5803 5801 5799 5798 5796 5794
5857 5857 5856 5855 5854 5854 5852 5851 5850 5849 5848 5847 5845 5844 5843 5842 5840 5839 5837 5836 5834 5833 5831 5828 5826 5823 5821 5819 5817 5814 5811 5809 5806 5804 5802 5799 5797 5795 5792 5791 5789 5788 5786
5850 5849 5849 5848 5848 5847 5846 5845 5843 5842 5841 5839 5838 5837 5835 5835 5834 5832 5830 5829 5827 5826 5823 5821 5819 5816 5814 5811 5809 5806 5804 5801 5799 5796 5794 5792 5790 5787 5785 5783 5781 5780 5778
5842 5842 5841 5841 5840 5840 5838 5837 5836 5835 5833 5831 5830 5829 5828 5827 5826 5824 5823 5821 5819 5818 5816 5814 5811 5809 5806 5804 5801 5799 5796 5794 5791 5789 5787 5784 5782 5780 5778 5775 5773 5772 5770
5833 5833 5833 5832 5831 5831 5830 5829 5828 5827 5826 5824 5823 5821 5820 5819 5818 5816 5815 5813 5811 5809 5808 5805 5803 5801 5798 5796 5794 5791 5788 5786 5784 5782 5779 5777 5775 5772 5770 5768 5765 5763 5761
5824 5824 5823 5823 5822 5821 5821 5820 5820 5819 5818 5817 5815 5813 5812 5811 5810 5808 5807 5805 5803 5801 5799 5796 5794 5792 5790 5788 5786 5783 5781 5778 5776 5774 5772 5769 5767 5765 5762 5760 5757 5755 5753
5814 5814 5814 5813 5812 5811 5811 5811 5810 5809 5809 5808 5806 5805 5804 5803 5801 5800 5798 5796 5794 5792 5790 5788 5786 5784 5782 5779 5777 5774 5772 5770 5767 5765 5763 5761 5758 5756 5754 5751 5749 5746 5744
5804 5804 5804 5803 5802 5802 5801 5800 5800 5800 5799 5797 5796 5795 5794 5794 5793 5791 5789 5788 5786 5783 5781 5779 5777 5775 5773 5771 5768 5765 5763 5760 5758 5756 5753 5751 5749 5746 5744 5741 5739 5737 5734
5794 5794 5793 5793 5792 5791 5790 5789 5788 5789 5788 5786 5785 5784 5784 5783 5782 5781 5779 5778 5776 5773 5771 5770 5768 5765 5763 5761 5758 5756 5753 5751 5748 5746 5744 5741 5738 5736 5733 5731 5728 5726 5723
5783 5783 5782 5782 5781 5780 5779 5778 5778 5777 5776 5775 5774 5773 5772 5772 5771 5770 5769 5767 5765 5763 5761 5759 5757 5755 5753 5750 5748 5746 5743 5740 5738 5736 5733 5730 5728 5725 5722 5720 5717 5715 5712
5772 5772 5772 5771 5770 5770 5769 5768 5767 5766 5765 5764 5763 5762 5761 5761 5760 5759 5757 5756 5754 5752 5750 5749 5747 5745 5742 5740 5738 5735 5733 5730 5728 5725 5722 5719 5716 5714 5711 5708 5705 5703 5701
5761 5761 5761 5760 5759 5758 5758 5757 5755 5754 5753 5752 5751 5751 5750 5749 5749 5748 5746 5744 5743 5741 5739 5737 5736 5733 5731 5729 5726 5724 5722 5719 5716 5714 5711 5708 5705 5702 5699 5696 5694 5691 5689
5751 5750 5750 5749 5748 5747 5746 5745 5743 5741 5741 5741 5741 5740 5740 5739 5738 5736 5735 5733 5731 5729 5728 5726 5724 5722 5719 5717 5715 5713 5710 5708 5705 5702 5700 5697 5694 5691 5688 5685 5682 5680 5678
5740 5740 5739 5738 5737 5736 5735 5733 5731 5730 5730 5729 5730 5729 5729 5728 5727 5725 5724 5722 5720 5719 5717 5715 5713 5710 5708 5706 5703 5701 5699 5696 5694 5691 5688 5685 5682 5680 5677 5674 5671 5669 5666
5729 5730 5729 5728 5727 5726 5725 5723 5721 5720 5719 5719 5719 5718 5718 5717 5716 5714 5712 5711 5709 5707 5705 5703 5701 5699 5697 5695 5692 5690 5688 5686 5683 5680 5677 5674 5671 5668 5666 5663 5660 5657 5655
5720 5720 5719 5718 5717 5716 5715 5714 5712 5711 5710 5709 5708 5708 5707 5706 5705 5704 5702 5700 5699 5697 5694 5692 5690 5687 5685 5683 5681 5679 5677 5674 5672 5668 5666 5663 5660 5657 5654 5652 5649 5646 5644
5711 5710 5710 5709 5708 5707 5706 5705 5704 5703 5702 5701 5700 5699 5698 5697 5695 5694 5693 5691 5689 5687 5684 5682 5680 5677 5675 5673 5671 5668 5666 5663 5660 5658 5655 5652 5649 5646 5643 5641 5638 5635 5632
5702 5701 5701 5700 5699 5698 5697 5696 5695 5694 5693 5693 5692 5690 5689 5687 5686 5685 5683 5681 5679 5677 5675 5672 5670 5668 5665 5663 5661 5658 5655 5653 5650 5647 5644 5642 5639 5636 5633 5630 5627 5623 5621
5694 5693 5693 5692 5691 5690 5689 5688 5687 5686 5685 5685 5684 5682 5680 5679 5677 5676 5674 5672 5670 5668 5665 5663 5661 5658 5656 5654 5651 5648 5646 5643 5640 5637 5634 5631 5629 5626 5622 5619 5617 5614 5611
Wind_Speed
15 15 14 14 14 13 13 12 13 13 13 12 12 12 12 12 12 13 13 13 13 14 15 15 16 16 16 17 17 18 18 19 19 20 21 22 22 22 23 23 24 24 23
16 16 16 15 15 14 14 14 14 14 14 14 13 13 13 13 14 14 15 15 15 15 16 16 16 17 17 17 18 19 20 20 21 22 23 24 24 24 25 25 24 25 25
17 18 18 17 16 16 16 15 16 16 16 16 15 15 15 15 15 15 16 16 17 17 18 18 18 18 19 20 20 21 22 22 23 23 24 25 25 26 26 26 26 25 26
19 19 19 18 17 17 17 18 18 18 18 18 17 17 17 17 17 17 18 18 18 18 19 19 19 20 20 21 22 22 23 24 24 25 25 26 26 27 27 26 26 27 27
21 20 20 20 19 20 20 20 19 20 20 20 19 19 19 19 19 19 19 19 20 20 20 21 21 21 21 23 23 24 25 25 26 26 26 26 26 27 26 27 28 28 28
22 21 21 22 22 22 22 22 22 21 21 21 22 22 22 21 21 22 22 22 22 23 23 22 23 23 23 24 25 26 26 26 26 27 27 27 27 27 27 27 28 28 28
24 23 24 23 23 23 23 23 23 22 22 23 24 24 24 24 24 24 24 24 24 25 25 26 26 25 25 25 26 26 27 27 27 27 27 27 27 27 28 28 28 28 28
25 25 25 26 25 26 25 25 25 25 25 25 25 25 25 26 26 26 26 26 26 27 28 28 28 28 28 27 28 28 28 28 28 28 28 28 28 29 29 29 29 29 28
27 27 26 27 27 27 27 27 27 27 27 28 27 27 27 27 27 27 27 28 28 29 29 28 29 28 28 28 29 29 30 29 28 29 29 29 29 29 29 29 29 28 28
30 29 29 28 28 29 29 29 29 30 30 30 30 29 28 28 28 28 28 29 29 30 29 28 29 29 30 30 30 30 30 29 29 29 29 29 28 29 29 29 29 29 29
31 31 31 31 31 31 30 30 30 31 31 30 30 29 29 29 29 29 29 30 30 30 31 30 30 30 31 31 31 31 30 30 30 29 29 29 28 28 29 30 30 30 30
32 32 32 33 33 33 32 32 32 32 32 31 31 30 30 30 30 29 30 30 31 32 32 33 32 31 31 31 31 31 31 30 30 30 30 30 30 30 30 31 31 31 30
33 33 33 34 34 34 34 34 34 34 33 33 33 31 30 30 30 31 32 32 32 33 33 33 33 33 32 32 32 32 32 32 32 32 32 31 32 32 32 32 31 31 31
35 34 34 35 35 35 35 35 35 35 35 35 34 32 31 31 32 32 32 33 33 33 33 33 33 34 33 33 33 33 34 34 34 33 33 33 33 33 33 33 33 33 33
37 36 36 37 37 37 37 37 37 37 37 37 36 35 35 34 33 34 34 34 35 34 34 34 34 35 35 35 35 35 35 35 35 35 34 35 35 35 34 35 35 35 35
37 37 38 38 38 38 38 38 38 38 38 38 38 37 37 36 36 36 37 37 36 36 36 36 36 36 36 36 36 36 36 36 36 36 36 36 36 36 36 36 37 36 36
38 38 38 38 39 39 38 38 39 39 39 39 39 39 38 38 38 38 38 38 38 37 37 37 37 36 36 37 37 37 36 36 37 37 38 38 37 37 37 37 38 38 37
38 39 39 39 39 40 39 39 40 41 40 40 39 39 39 39 39 39 39 39 38 37 37 37 37 37 37 38 37 37 37 37 38 38 38 38 38 39 39 38 38 38 37
38 39 40 40 40 41 41 40 41 41 40 39 39 38 39 39 39 39 39 39 39 39 38 38 38 38 38 38 38 38 38 39 39 38 38 38 39 39 38 38 38 38 38
38 38 38 39 39 40 40 41 41 41 40 39 38 38 38 39 39 39 40 40 39 39 38 39 39 39 38 38 38 38 38 38 37 37 38 38 37 38 38 38 37 37 37
37 37 38 38 38 39 40 40 40 39 38 37 38 38 38 38 38 39 38 38 38 38 39 39 39 39 39 38 38 37 37 36 36 37 37 37 37 37 37 37 36 36 36
35 35 35 36 36 36 37 36 36 37 36 35 35 35 36 36 36 36 36 36 37 38 39 39 38 38 38 37 37 36 36 36 36 37 37 37 37 36 36 36 36 36 35
32 33 34 34 35 35 35 35 34 34 34 32 32 32 33 33 33 34 34 34 35 35 36 37 36 36 35 36 36 37 37 37 37 37 36 36 36 36 35 35 36 35 35
32 33 34 34 34 33 33 33 33 33 33 31 30 30 30 31 32 32 32 32 33 33 34 33 33 33 34 34 34 35 35 35 35 34 34 34 35 35 35 34 34 34 34
30 30 31 32 31 31 32 32 31 30 30 30 30 29 29 29 29 30 31 31 32 32 31 32 32 32 32 32 33 34 34 34 33 33 33 33 33 34 34 34 34 33 33
28 29 29 29 29 29 29 28 28 29 29 29 30 30 29 29 30 30 30 31 31 32 31 32 32 31 31 32 32 32 32 32 33 33 32 32 33 33 33 33 33 32 32
Wind_Direction
308 309 313 313 315 318 322 323 323 321 321 316 312 310 307 305 306 305 303 301 301 303 304 304 301 300 300 300 301 299 296 294 293 292 292 291 290 289 288 288 288 288 289
301 302 306 306 306 311 313 315 316 317 316 314 310 309 306 305 305 305 303 302 302 303 305 305 302 301 302 302 302 301 298 296 294 293 291 291 290 290 289 288 289 290 289
296 297 299 302 305 306 308 308 311 312 310 308 306 305 305 303 304 304 304 301 300 300 301 303 303 302 302 303 303 302 300 299 297 295 293 292 290 290 289 289 290 291 291
292 293 295 298 302 303 303 305 307 308 307 304 300 299 300 302 304 304 304 303 301 301 302 302 302 302 301 300 300 299 299 299 298 296 295 294 294 292 291 291 291 291 290
289 290 292 294 297 298 298 299 301 304 305 301 299 298 298 298 299 301 302 302 304 303 302 302 303 304 302 301 301 300 298 299 298 297 295 294 294 293 292 292 292 291 290
287 288 289 290 293 295 294 295 295 297 302 303 301 300 299 298 299 300 301 302 302 304 304 302 302 302 302 302 301 301 300 300 299 298 297 296 294 293 292 292 293 292 291
283 285 287 286 290 293 293 296 297 297 299 301 300 299 298 297 297 299 300 300 300 301 303 302 300 299 299 300 301 300 299 299 300 301 299 297 295 293 293 293 293 293 292
282 282 285 286 287 289 290 289 291 293 294 297 296 295 295 294 294 295 297 298 298 299 300 301 300 299 297 297 299 300 300 299 299 298 298 297 295 294 293 294 293 292 292
280 282 283 284 286 287 287 289 290 292 292 294 293 292 292 292 293 294 296 296 298 299 298 299 299 299 299 297 297 298 299 298 297 297 298 297 296 295 295 295 294 292 292
274 276 278 280 283 285 286 288 289 291 292 292 290 290 290 291 292 295 296 297 297 297 296 298 300 299 299 299 298 298 297 296 296 298 298 297 297 297 296 295 293 292 292
273 273 274 277 279 282 285 287 289 291 291 292 291 290 290 290 292 295 296 296 297 296 296 297 297 298 299 299 298 297 297 297 296 297 297 296 295 296 297 296 294 294 293
273 274 275 276 276 279 282 284 286 288 288 290 289 289 289 290 291 294 295 295 296 296 296 296 296 295 297 298 298 297 297 297 296 296 296 295 295 296 295 296 294 293 292
271 273 274 276 278 277 279 282 283 284 286 287 288 288 288 290 290 291 293 294 295 296 296 295 295 295 295 296 296 296 296 295 296 296 295 294 295 295 294 294 294 293 292
271 272 275 277 278 278 278 279 280 282 284 285 285 286 287 288 289 290 291 293 294 295 295 294 293 293 294 294 294 294 294 295 295 294 293 293 294 294 293 293 292 292 293
271 273 275 277 278 279 278 277 279 280 282 283 284 286 285 285 286 288 289 291 293 292 293 293 292 292 292 292 293 293 294 294 294 294 294 294 295 294 293 293 293 292 293
272 273 274 275 275 277 277 277 278 279 281 283 283 283 283 282 283 285 287 289 290 291 291 291 291 291 291 292 293 293 293 294 294 294 294 295 294 293 292 292 292 292 292
272 273 274 275 276 277 278 279 280 282 283 284 282 280 281 282 282 283 285 286 288 289 289 290 290 291 291 291 293 294 293 293 294 293 293 293 294 293 292 292 291 292 292
271 272 274 275 275 276 278 279 281 282 283 284 284 283 283 282 283 284 284 285 286 287 288 289 289 290 290 291 292 293 294 294 293 292 292 292 292 292 292 291 291 292 293
271 272 273 275 276 277 278 279 280 280 281 281 282 282 282 282 282 284 285 285 286 286 287 288 289 290 291 292 292 293 293 292 292 293 293 293 293 292 292 291 291 291 292
271 272 273 274 276 277 278 279 280 280 279 278 279 280 281 282 283 283 284 285 286 286 287 288 289 290 292 293 293 293 292 292 292 293 293 293 293 293 293 292 292 291 291
271 271 273 274 275 277 278 279 279 281 279 278 278 279 280 281 282 283 284 286 287 288 289 290 290 290 290 291 292 292 292 292 293 293 293 293 294 294 294 293 292 291 291
272 272 273 275 275 277 279 280 279 279 278 278 278 278 279 280 283 285 286 288 288 289 290 290 291 291 290 290 290 291 292 292 293 293 294 293 294 294 294 293 292 291 290
273 273 274 275 276 278 281 280 279 279 282 282 282 281 280 281 283 285 287 289 290 291 292 293 291 290 290 290 291 293 293 293 293 293 293 294 294 294 294 293 292 291 291
274 276 277 277 278 279 278 279 281 282 283 283 283 283 282 283 284 286 288 290 291 292 292 292 292 291 291 291 293 294 293 294 294 294 294 295 296 296 295 294 293 292 291
276 276 277 277 278 278 277 278 279 282 283 283 285 286 287 287 287 289 290 290 291 292 293 293 292 292 291 293 294 295 295 295 296 296 297 296 296 297 297 296 295 293 293
276 277 277 278 279 279 278 279 281 284 286 286 286 288 290 290 290 290 291 291 292 293 295 294 294 293 293 294 294 295 296 297 298 298 297 297 298 298 298 297 296 294 293